This is the latest recevied weather packets stored in our database for station/object NI4CE-11. If no packets are shown the sender has not sent any weather packets the latest 10 day(s).
| Time | Temp. | Humidity | Pressure | Rain* | Wind** | Luminosity | Snow |
|---|---|---|---|---|---|---|---|
| 1777952850 | 20.56° C | 100% | 1016.1 hPa | 0 mm | - | - | - |
| 1777952691 | 20.56° C | 100% | 1016.1 hPa | 0 mm | - | - | - |
| 1777952391 | 20.56° C | 100% | 1016.1 hPa | 0 mm | - | - | - |
| 1777952091 | 21.11° C | 100% | 1016.1 hPa | 0 mm | - | - | - |
| 1777951791 | 20.56° C | 100% | 1016.2 hPa | 0 mm | - | - | - |
| 1777951491 | 20.56° C | 100% | 1016.2 hPa | 0 mm | - | - | - |
| 1777951191 | 21.11° C | 100% | 1016.2 hPa | 0 mm | - | - | - |
| 1777951056 | 21.11° C | 100% | 1016.5 hPa | 0 mm | - | - | - |
| 1777950891 | 21.11° C | 100% | 1016.3 hPa | 0 mm | - | - | - |
| 1777950793 | 21.11° C | 100% | 1016.5 hPa | 0 mm | - | - | - |
| 1777950591 | 21.11° C | 100% | 1016.5 hPa | 0 mm | - | - | - |
| 1777950426 | 21.11° C | 100% | 1016.3 hPa | 0 mm | - | - | - |
| 1777950291 | 22.22° C | 100% | 1016.5 hPa | 0 mm | - | - | - |
| 1777949991 | 21.11° C | 100% | 1016.5 hPa | 0 mm | - | - | - |
| 1777949691 | 21.11° C | 100% | 1016.3 hPa | 0 mm | - | - | - |
| 1777949391 | 21.11° C | 100% | 1016.3 hPa | 0 mm | - | - | - |
| 1777949288 | 21.67° C | 100% | 1016.2 hPa | 0 mm | - | - | - |
| 1777949091 | 21.67° C | 100% | 1016.2 hPa | 0 mm | - | - | - |
| 1777948865 | 21.67° C | 100% | 1016.1 hPa | 0 mm | - | - | - |
| 1777948791 | 21.67° C | 100% | 1016.2 hPa | 0 mm | - | - | - |
| 1777948491 | 21.67° C | 100% | 1016.1 hPa | 0 mm | - | - | - |
| 1777948191 | 21.67° C | 100% | 1016.1 hPa | 0 mm | - | - | - |
| 1777947966 | 21.67° C | 100% | 1016.1 hPa | 0 mm | - | - | - |
| 1777947891 | 21.67° C | 100% | 1016.1 hPa | 0 mm | - | - | - |
| 1777947830 | 22.22° C | 100% | 1015.8 hPa | 0 mm | - | - | - |
* Rain latest hour (hover to see other rain measurements)
** Current wind speed in m/s (hover to see current wind gust speed)